Location: Pella
(41.4080°N, 92.9160°W)
Time: 15:50:49
(UTC-06:00)

Daily predictions for brighter satellites

Satellite Brightness Start Highest point End
(mag) Time Altitude Azimuth Time Altitude Azimuth Time Altitude Azimuth
Meteor 2-13 Rocket 4.5 17:00:59 10° N 17:07:08 82° E 17:13:12 10° S
CZ-2C R/B 2.9 17:03:36 10° SE 17:08:13 41° ENE 17:12:58 10° N
Cosmos 1238 Rocket 4.1 17:10:00 10° ESE 17:11:23 13° E 17:12:46 10° ENE
CZ-2C R/B 3.8 17:07:35 10° N 17:12:02 79° WNW 17:16:30 10° SSW
CZ-3A R/B 3.0 17:09:16 10° WSW 17:13:06 77° NW 17:31:43 10° NE
Cosmos 1844 4.5 17:09:27 10° SSE 17:14:16 31° ESE 17:19:05 10° NE
BREEZE-M DEB (TANK) 1.6 17:13:45 10° WSW 17:16:17 64° NNW 17:18:27 10° NE
AQUARIUS 4.3 17:15:49 10° SSE 17:20:09 50° ENE 17:24:31 10° N
MOS 1 4.3 17:15:18 10° SSE 17:20:51 62° ENE 17:26:26 10° N
CORIOLIS 4.3 17:18:04 10° SE 17:23:18 52° ENE 17:28:32 10° N
SPOT 3 Rocket 3.5 17:21:37 10° SSE 17:26:45 65° ENE 17:31:53 10° N
PAYLOAD A 3.9 17:22:18 10° SSE 17:27:03 87° WSW 17:32:01 10° NNW
SMAP 3.1 17:24:01 10° SSE 17:28:35 62° ENE 17:33:12 10° N
YAOGAN 1 2.6 17:25:47 10° SSE 17:30:01 58° ENE 17:34:18 10° N
Cosmos 2278 Rocket 3.2 17:27:27 10° SSE 17:32:04 27° ESE 17:36:35 10° NE
COSMOS 2406 3.2 17:27:45 10° NNW 17:33:29 84° ENE 17:39:14 10° SSE
SL-8 Rocket 4.0 17:28:27 10° N 17:34:35 63° E 17:40:39 10° SSE
Abrixas 4.2 17:40:24 10° NW 17:42:43 20° N 17:44:08 15° NE
IDEFIX/ARIANE 42P 2.5 17:37:51 10° SSE 17:43:03 85° ENE 17:48:16 10° NNW
USA 32 4.0 17:38:03 10° S 17:43:13 66° E 17:48:24 10° N
Meteor 1-5 Rocket 4.2 17:38:38 10° N 17:44:03 89° ENE 17:49:37 10° S
Cosmos 2366 rocket 4.1 17:38:25 10° N 17:44:40 55° E 17:50:49 10° SSE
Cosmos 2218 Rocket 4.0 17:40:15 10° N 17:46:32 65° E 17:52:41 10° SSE
OTV 4 2.3 17:44:04 10° WSW 17:46:41 27° SSW 17:49:18 10° SE
Cosmos 2181 Rocket 4.3 17:40:36 10° SSW 17:46:56 77° W 17:53:23 10° N
Cosmos 1484 Rocket 3.3 17:43:38 10° SE 17:47:05 35° ENE 17:50:30 10° N
SJ-7 4.4 17:43:06 10° SSE 17:47:19 86° E 17:51:36 10° NNW
CZ-3B DEB 2.1 17:44:37 10° SSW 17:48:03 65° SE 17:55:17 14° NE
Meteor 2-19 Rocket 4.4 17:42:30 10° N 17:48:34 72° E 17:54:35 10° SSE
Cosmos 372 Rocket 4.4 17:43:55 10° SSW 17:49:07 65° WNW 17:54:22 10° NNE
SKYMED 2 4.1 17:46:33 10° NNE 17:50:35 36° E 17:54:35 10° SSE
Cosmos 1959 Rocket 4.4 17:44:26 10° N 17:50:37 70° E 17:56:49 10° SSE
USA 234 3.8 17:45:34 10° NE 17:51:51 51° NNW 17:58:06 10° WSW
Cosmos 1455 Rocket 3.1 17:48:06 10° N 17:52:24 53° E 17:56:43 10° SSE
CZ-4 R/B 4.4 17:51:20 10° SSE 17:55:28 84° ENE 17:59:39 10° N
Cosmos 2082 Rocket 3.4 17:52:21 10° N 17:56:34 21° NE 17:57:45 20° ENE
Cosmos 1833 Rocket 3.9 17:58:28 10° N 18:02:32 20° NE 18:02:46 20° NE
BREEZE-M DEB (TANK) 4.5 17:55:10 10° W 18:02:41 34° NNW 18:05:27 18° NE
Thor Agena Rocket 4.1 18:00:01 10° N 18:05:06 59° WNW 18:10:15 10° SSW
NOSS 3-3 (A) 4.3 17:59:35 10° S 18:05:27 49° ESE 18:09:41 20° NE
NOSS 3-3 (C) 4.3 17:59:42 10° S 18:05:33 48° ESE 18:09:45 21° NE
Cosmos 494 Rocket 3.9 18:01:30 10° NNW 18:06:44 65° ENE 18:11:56 10° SSE
SL-8 R/B 4.1 18:02:14 10° SW 18:06:48 47° SE 18:09:02 27° E
Okean 1 3.3 18:07:27 10° S 18:11:25 59° E 18:14:31 16° NNE
Cosmos 1500 3.5 18:08:03 10° N 18:11:41 41° ENE 18:15:19 10° SSE
ATLAS 2AS CENTAUR R/B 3.0 18:06:12 10° NW 18:14:21 85° NE 18:21:55 10° SE
Meteor 1-28 Rocket 3.7 18:15:04 36° E 18:15:24 37° E 18:18:56 10° SSE
NOAA 12 4.4 18:11:27 10° SE 18:16:24 42° ENE 18:21:21 10° N
Cosmos 2251 Rocket 3.6 18:14:57 10° NNW 18:20:21 83° WSW 18:25:39 10° SSE
ISS -2.4 18:17:53 10° W 18:21:02 40° NNW 18:21:49 33° N
Meteor 1-18 Rocket 4.3 18:15:40 10° S 18:21:17 84° W 18:27:03 10° N
SL-27 R/B 3.9 18:25:42 10° NNW 18:29:10 41° WSW 18:32:35 10° S
Cosmos 1812 3.5 18:28:04 10° SSW 18:31:50 51° W 18:35:36 10° N
Cosmos 1346 Rocket 2.6 18:28:28 10° S 18:32:21 65° E 18:32:45 60° ENE
Tiangong 1 3.5 18:33:13 10° SSW 18:34:09 14° S 18:34:09 14° S
DMSP B5D1-3 4.4 18:34:03 14° NNE 18:38:37 87° ESE 18:43:45 10° SSW
COSMO-SKYMED 1 2.9 18:34:47 13° N 18:38:41 64° WNW 18:42:58 10° SSW
Nadezhda 3 Rocket 3.8 18:34:53 10° S 18:41:02 73° E 18:47:16 10° NNE
Meteor 2-21 4.3 18:35:07 10° N 18:41:21 83° E 18:47:28 10° S
GEOS 3 Rocket 3.8 18:41:16 10° SSE 18:46:20 69° SW 18:51:28 10° NW
Cosmos 1844 Rocket 4.1 18:42:47 10° WSW 18:47:51 34° WNW 18:52:50 10° N
Cosmos 1975 3.9 18:49:04 10° NNW 18:52:58 45° W 18:56:50 10° SSW
ATLAS 3B CENTAUR R/B 4.1 18:41:24 10° WSW 18:56:16 36° S 19:00:10 23° SE
Cosmos 2297 3.5 18:53:34 10° SSW 18:59:09 68° ESE 18:59:27 67° E
CZ-3A R/B 4.4 18:54:33 10° W 19:05:07 30° NNW 19:07:18 24° NNE
Meteor 2-14 Rocket 4.4 18:59:06 10° N 19:05:18 87° W 19:11:26 10° S
BREEZE-M R/B 3.7 18:58:07 10° WSW 19:07:20 70° NNW 19:08:02 62° NNE
Meteor 1-19 Rocket 4.2 19:05:08 10° S 19:10:54 90° E 19:12:12 57° N
Cosmos 2278 Rocket 3.2 19:10:31 10° SW 19:15:53 44° WNW 19:18:29 27° N
FALCON 9 R/B 3.3 19:07:32 10° WSW 19:25:12 54° S 19:26:28 49° SSE
Timation 1 Rocket 4.5 19:24:19 10° SSW 19:29:25 67° SW 19:29:25 67° SW
BREEZE M DEB (TANK) 4.1 19:28:36 10° WSW 19:32:37 33° W 19:32:37 33° W
Cosmos 2082 Rocket 2.9 19:35:32 10° NNW 19:39:41 47° NW 19:39:41 47° NW
Cosmos 1833 Rocket 3.9 19:41:24 10° NNW 19:44:32 34° NW 19:44:32 34° NW
BREEZE M DEB (TANK) 4.0 19:46:51 10° WNW 19:50:34 66° NW 19:50:34 66° NW
CZ-3B DEB 4.2 20:18:37 10° WNW 20:24:12 41° NNW 20:24:12 41° NNW
